Regional Weather Roundup
Issued by NWS Sioux Falls, SD

Home | Current Version | Previous Version | Text Only | Print | Product List | Glossary Off
Versions: 1 2 3 4 5 6 7 8 9 10 11 12 13 14 15 16 17 18 19 20 21 22 23 24 25 26 27 28 29 30 31 32 33 34 35 36 37 38 39 40 41 42 43 44 45 46 47 48 49 50

000
ASUS43 KFSD 160110
RWRFSD

WEATHER ROUNDUP FOR SE SOUTH DAKOTA/SW MINNESOTA/NW IOWA
NATIONAL WEATHER SERVICE SIOUX FALLS SD
800 PM CDT MON SEP 15 2014

NOTE: "FAIR" INDICATES FEW OR NO CLOUDS BELOW 12,000 FEET WITH NO
SIGNIFICANT WEATHER AND OR OBSTRUCTIONS TO VISIBILITY.


SDZ038>040-050-052>070-160200-
SOUTHEAST SOUTH DAKOTA

CITY           SKY/WX    TMP DP  RH WIND       PRES   REMARKS
CHAMBERLAIN    CLEAR     52  41  66 SE3       30.21F
HURON          CLEAR     55  37  50 SE3       30.21F
MADISON        FAIR      50  46  87 CALM      30.23S
MITCHELL       CLEAR     57  40  52 CALM      30.22F
SIOUX FALLS    CLEAR     54  42  64 W3        30.23S
WINNER         FAIR      55  40  56 SE6       30.21F
YANKTON        CLEAR     55  43  62 CALM      30.23S
$$

MNZ071-072-080-081-089-090-097-098-160200-
SOUTHWEST MINNESOTA

CITY           SKY/WX    TMP DP  RH WIND       PRES   REMARKS
FAIRMONT       CLEAR     52  39  62 N3        30.22S
JACKSON        CLEAR     48  43  81 CALM      30.23S
LUVERNE        CLEAR     54  43  66 CALM      30.24R
MARSHALL       CLEAR     55  37  50 N3        30.21S
MONTEVIDEO     CLEAR     54  36  50 CALM      30.22S
PIPESTONE      CLEAR     55  39  54 CALM      30.22F
REDWOOD FALLS  CLEAR     53  38  56 NW6       30.21S
TRACY          CLEAR     51  44  76 CALM      30.23S
WINDOM         CLEAR     52  45  76 CALM      30.23R
WORTHINGTON    CLEAR     52  43  71 CALM      30.24R
$$

IAZ001>003-012>014-020>022-031-032-NEZ013-014-SDZ071-160200-
NORTHWEST IOWA

CITY           SKY/WX    TMP DP  RH WIND       PRES   REMARKS
CHEROKEE       CLEAR     50  46  84 CALM      30.23S
DENISON        CLEAR     52  46  82 CALM      30.22S
ESTHERVILLE    CLEAR     48  43  82 CALM      30.22S
LE MARS        CLEAR     52  48  87 CALM      30.24S
ORANGE CITY    CLEAR     54  45  71 CALM      30.24R
SHELDON        CLEAR     50  46  87 CALM      30.22S
SIOUX CITY     CLEAR     53  45  74 CALM      30.24S
SPENCER        CLEAR     52  43  71 CALM      30.23S
STORM LAKE     CLEAR     50  46  87 CALM      30.23S
$$

ABBREVIATIONS USED IN REMARKS
   TC - TEMPERATURE IN CELSIUS
  WCI - WIND CHILL INDEX
   HX - HEAT INDEX
  VSB - VISIBILITY




USA.gov is the U.S. government's official web portal to all federal, state and local government web resources and services.